STARLINK-33788, 63589

Orbit data source: Space-Track

STARLINK-33788, 63589 is a payload satellite in LEO that was launched on Mon, 14 Apr 2025 UTC via an FALCON 9 launch vehicle from the Air Force Eastern Test Range (AFETR). Payload-class satellites include a variety of spacecraft equipped with specific instruments for various scientific and technological missions. These include communications satellites like Starlink; space stations such as the ISS; scientific satellites like the Hubble; Earth observation satellites from companies like Planet Labs, Umbra, and HawkEye 360; GPS; miniature CubeSats for education and research; and military/defense satellites.

Loading next visibility...
Identifier
63589, 2025-076W
Orbit
LEO
Last TLE update
10 hours ago
Origin
Manufacturer
SpaceX/Seattle
Mission
Operational spacecraft
Bus & Motor
STARLINK V2MO, Unknown motor
Mass
575 kg wet, ~530 kg dry
Launch date (UTC)
2025-04-14 (1 month ago)
Launch vehicle
FALCON 9
Launch site
Air Force Eastern Test Range (AFETR)
Object type
Payload
Rocket body
Debris
Shape & HBR
Unknown
Radar Cross Section
Large (>1 m²)

Expand to show TLE details & history

TLE from 10 hours ago
0 STARLINK-33788
1 63589U 25076W   25140.25002315 -.00009455  00000-0 -21933-3 0  9997
2 63589  42.9999 181.5529 0001028 259.9337  32.3857 15.40705611  6739
Epoch: 2025-05-20T06:00Z
TLE epoch observation values (Epoch: 2025-05-20T06:00:02Z)
Latitude
-39.28446°
Longitude
152.65743°
Altitude
455.175 km
Speed
7.64 km/s
True Right ascension
08h 03m 16s
True Declination
-39° 06' 31"
Sunlit
Object was in daylight at epoch
Visualization orbit readout
Latitude
33.80344°
Longitude
-14.6102°
Altitude
445.789 km
Speed
7.649 km/s
Apparent Right ascension
17h 26m 46s
Apparent Declination
-3° 03' 06"
Sunlit
Object is in daylight
Visualization observer readout
Local Sidereal Time
01:04:04
Azimuth
283.777° WNW
Elevation
-20.466°
Doppler factor
1
Orbital elements
Apogee altitude
446.683 km
Perigee altitude
445.28 km
Semi-major axis
6,824.119 km
Eccentricity
0.0001
Inclination
42.9999°
RAAN
181.5529°
Arg. of periapsis
259.9337°
True anomaly
Unknown
Mean anomaly
32.3857°
Eccentric anomaly
Unknown
Mean motion
3.85011 °/min
Orbital period
93.5 mins
BSTAR
-0.00021933
Loading maneuver chart data...
Loading SW <> Apogee altitude chart data...
Loading historical data...
Loading historical data...
Loading historical data...
Loading historical data...
Loading historical data...
Loading historical data...
Loading historical data...

STARLINK-33788 Visibility forecast

Observer location: undefined°, undefined°

Span
Click to sort rows by Start time (UTC) header in descending order
Start Az.
Max El. time (UTC)
Max El. Az.
Max El.
End time (UTC)
End Az.
5 mins2025-05-21 05:50:16.552Z212.764° SW2025-05-21 05:53:16.552Z136.836° SSE28.879°2025-05-21 05:55:16.552Z91.267° ESE
5 mins2025-05-21 07:29:16.552Z271.346° WNW2025-05-21 07:31:16.552Z28.494° NE40.933°2025-05-21 07:34:16.552Z70.202° E
5 mins2025-05-21 09:07:16.552Z296.845° NW2025-05-21 09:09:16.552Z9.277° NNE37.779°2025-05-21 09:12:16.552Z80.557° E
5 mins2025-05-21 10:45:16.552Z282.501° WNW2025-05-21 10:47:16.552Z220.863° SW43.287°2025-05-21 10:50:16.552Z119.002° SE
|